Temp
87 81 78 83 86 84 80 77 75 79 80 75 76 77 81 83 82 81 82 83 86 89 93 94 93 94 92 90 87 85 84 83 84 85 84 86 87 88 85 91 89 88 89 88
81 77 86 88 84 81 80 77 77 80 78 77 78 76 83 84 83 83 83 85 80 90 91 92 93 93 93 90 87 85 84 82 83 86 86 88 88 90 91 91 90 89 88 84
79 82 86 83 81 78 80 78 77 76 79 79 76 76 79 84 85 85 86 88 90 89 91 91 91 93 93 90 87 85 84 83 83 85 86 85 87 88 88 89 90 90 88 88
82 88 81 80 79 82 76 84 80 77 75 72 79 68 78 82 82 83 85 86 89 90 91 92 92 92 92 91 90 87 85 83 84 83 84 82 85 85 89 90 92 92 88 88
79 81 80 77 80 84 79 83 80 79 76 77 77 72 78 81 80 84 86 88 90 91 92 92 93 93 94 93 91 89 85 83 84 82 84 84 83 89 91 92 89 85 87 88
82 87 83 84 87 86 85 81 79 79 79 68 77 75 75 82 82 86 89 90 90 91 93 93 94 95 93 93 91 90 85 82 84 83 82 82 83 86 89 88 89 91 91 90
80 81 86 87 81 84 82 79 68 66 67 67 77 73 77 86 90 91 89 90 91 92 92 92 91 92 92 90 89 89 85 83 84 83 83 83 83 84 84 83 87 90 92 92
74 72 83 87 83 80 79 81 71 59 64 70 75 68 79 90 94 93 92 92 91 92 94 92 91 91 90 90 89 88 83 84 77 84 82 84 84 87 88 88 91 91 93 93
76 74 85 87 89 87 80 74 86 76 78 69 75 79 87 92 90 92 92 90 89 90 92 91 90 90 90 90 89 86 84 81 82 83 79 84 84 84 88 88 88 91 90 95
82 72 84 85 88 86 83 88 75 76 61 60 70 71 74 82 86 90 89 89 89 89 90 91 92 90 91 92 92 90 88 85 80 79 80 86 87 86 86 87 86 88 90 89
86 80 79 82 79 80 79 77 79 81 76 66 65 73 86 84 87 86 90 90 91 90 89 90 90 92 92 93 92 91 88 87 86 90 88 89 89 89 87 87 86 86 88 88
87 83 74 79 88 90 87 82 83 72 69 74 72 72 92 90 91 90 88 90 90 90 90 90 90 89 90 90 91 89 90 90 91 90 78 89 88 84 90 87 87 87 86 88
85 77 71 74 82 84 80 84 84 84 82 71 69 75 93 91 89 88 88 89 86 86 88 90 91 89 88 90 89 88 88 90 92 90 90 88 88 86 88 90 88 88 87 86
79 81 76 71 75 80 76 80 84 83 74 74 77 78 86 88 89 91 88 89 88 86 85 88 88 87 87 87 86 85 87 89 88 89 89 88 87 88 90 89 88 88 87 86
82 73 78 80 82 82 80 79 81 78 79 73 78 80 85 89 91 93 92 89 88 86 86 86 86 86 85 84 84 85 85 86 87 85 84 84 86 86 86 86 86 86 86 86
83 70 76 73 79 80 77 80 81 82 81 79 80 80 92 94 92 90 90 87 86 87 88 87 87 86 84 84 84 84 83 83 83 83 83 83 83 83 83 83 83 84 84 84
72 73 71 65 76 76 70 78 79 82 84 82 76 83 91 90 88 89 89 88 87 88 89 88 88 87 87 87 86 84 83 83 81 81 82 82 82 81 81 81 79 79 79 81
68 68 69 65 70 58 76 86 85 82 84 87 85 86 90 91 94 94 95 92 89 89 88 88 90 88 87 88 88 87 85 83 81 79 77 78 78 77 78 78 77 77 80 79
77 69 64 61 63 70 75 80 79 78 78 88 86 86 91 92 90 90 92 94 93 92 91 90 90 88 86 85 84 83 81 80 77 76 76 76 76 75 75 74 75 76 75 75
76 75 64 64 58 56 72 83 81 80 69 86 87 88 89 87 83 88 89 92 93 95 93 90 89 86 85 83 83 81 79 78 75 73 73 75 75 76 76 75 73 73 74 72
65 66 63 62 59 66 77 78 79 63 70 77 77 82 86 83 84 83 88 89 92 94 92 90 87 85 84 84 84 81 81 80 80 80 80 77 75 75 75 77 76 76 75 76
62 60 61 63 57 55 80 75 69 74 75 76 75 74 75 78 79 83 86 87 89 90 90 89 86 85 84 84 83 80 79 80 80 80 78 74 76 79 76 75 76 77 76 74
59 66 59 63 64 69 74 73 76 77 74 75 76 78 76 77 78 80 83 85 88 88 88 90 88 83 83 83 83 80 79 80 79 79 77 77 78 77 77 75 76 77 75 76
67 71 62 63 70 73 72 75 77 76 75 76 78 78 79 77 78 80 83 85 87 88 87 89 87 83 80 82 82 82 80 76 79 76 76 78 77 76 78 80 80 79 77 76
66 67 62 63 68 71 73 74 75 74 75 76 78 78 78 78 77 79 81 82 85 86 86 86 84 82 79 81 81 82 78 78 76 79 80 79 79 77 74 72 72 74 70 66
67 63 60 60 69 68 69 74 75 74 75 77 75 75 78 78 77 79 80 82 83 84 84 82 82 81 79 81 81 80 76 77 78 79 80 81 80 78 76 75 70 49 49 46
MSLP
1007.30 1006.77 1005.75 1005.27 1005.31 1005.58 1006.11 1006.29 1006.20 1006.35 1007.29 1007.64 1007.21 1006.96 1006.90 1007.38 1007.95 1008.13 1008.58 1008.86 1008.89 1009.12 1009.67 1010.26 1011.15 1011.98 1012.78 1013.67 1014.67 1015.51 1016.12 1016.70 1017.15 1017.28 1017.44 1017.55 1017.49 1017.89 1018.60 1018.20 1018.46 1018.80 1018.89 1019.17
1006.65 1005.92 1005.25 1005.33 1005.78 1006.14 1005.93 1005.82 1005.61 1005.97 1007.07 1007.23 1006.30 1005.99 1005.75 1006.10 1006.65 1007.10 1007.52 1007.84 1008.59 1008.29 1008.96 1009.61 1010.37 1011.19 1012.08 1013.05 1014.10 1015.07 1015.78 1016.46 1016.83 1017.06 1017.22 1017.20 1017.33 1017.39 1017.62 1017.79 1018.21 1018.58 1018.79 1019.34
1005.55 1004.93 1005.28 1005.56 1005.70 1005.79 1005.40 1005.23 1005.33 1005.70 1006.02 1006.32 1006.00 1004.38 1004.28 1004.75 1005.48 1006.17 1006.53 1006.94 1007.14 1007.55 1007.92 1008.90 1009.70 1010.39 1011.36 1012.29 1013.41 1014.41 1015.25 1016.06 1016.49 1016.71 1017.18 1017.52 1017.49 1017.45 1017.70 1017.70 1017.98 1018.15 1018.58 1018.80
1005.28 1005.00 1005.44 1005.42 1005.25 1005.26 1004.64 1004.75 1005.36 1005.40 1005.48 1004.35 1005.20 1003.37 1003.03 1003.33 1004.00 1004.77 1005.25 1005.75 1006.03 1006.52 1007.24 1007.80 1008.83 1009.71 1010.53 1011.55 1012.73 1013.83 1014.84 1015.60 1016.23 1016.70 1016.78 1016.96 1016.84 1016.77 1016.81 1017.13 1017.26 1017.44 1018.27 1018.48
1004.62 1004.75 1004.88 1004.87 1004.66 1004.75 1004.46 1005.11 1005.15 1004.98 1004.66 1004.22 1003.41 1003.29 1001.91 1002.44 1002.45 1002.67 1003.37 1004.06 1004.74 1005.59 1006.30 1006.90 1007.85 1008.82 1009.80 1010.94 1011.98 1013.06 1014.33 1015.24 1015.66 1016.44 1016.57 1016.80 1016.74 1016.38 1016.50 1016.63 1016.85 1017.69 1017.96 1018.18
1004.58 1004.89 1004.93 1004.17 1004.07 1004.50 1004.65 1004.95 1004.88 1004.69 1003.90 1003.10 1002.04 1002.43 1001.07 1000.60 1001.13 1001.27 1001.76 1002.49 1003.47 1004.46 1005.36 1006.25 1007.15 1008.10 1009.24 1010.40 1011.42 1012.42 1013.71 1014.65 1015.31 1015.93 1016.55 1016.74 1016.49 1016.34 1016.12 1016.50 1016.56 1016.75 1017.26 1017.72
1003.72 1003.67 1004.04 1004.06 1003.64 1004.25 1004.56 1003.86 1003.16 1002.80 1002.19 1001.52 1002.10 1002.01 1000.70 1000.39 1000.35 1000.52 1000.85 1001.59 1002.49 1003.50 1004.72 1005.52 1006.43 1007.37 1008.51 1009.62 1010.91 1011.85 1013.07 1013.90 1014.59 1015.27 1015.81 1016.36 1016.59 1016.64 1016.58 1016.84 1016.59 1015.86 1016.09 1016.61
1002.14 1001.59 1002.33 1002.98 1003.00 1002.73 1003.44 1003.04 1002.09 1001.51 1001.18 1000.95 1001.83 1000.97 999.93 999.84 999.85 1000.10 1000.58 1001.12 1001.87 1002.67 1003.57 1004.78 1005.89 1007.05 1007.88 1008.88 1010.22 1011.23 1012.23 1013.11 1014.25 1014.57 1015.10 1015.67 1016.13 1016.19 1016.15 1016.19 1015.86 1015.86 1015.60 1015.80
1001.63 1001.46 1002.01 1002.10 1002.35 1002.76 1002.33 1002.68 1002.17 1001.61 1001.19 1001.43 1000.67 1000.00 999.53 999.06 999.21 999.35 999.79 1000.71 1001.57 1002.28 1002.96 1004.12 1005.34 1006.56 1007.56 1008.44 1009.35 1010.66 1011.59 1012.70 1013.21 1013.68 1014.71 1014.96 1015.44 1015.72 1015.45 1015.63 1015.93 1015.95 1015.86 1015.40
1001.62 1001.41 1001.21 1001.51 1002.12 1002.38 1002.16 1001.86 1001.72 1001.25 1000.91 1000.29 999.72 999.55 999.13 998.93 998.80 999.00 999.32 1000.14 1001.13 1002.18 1002.96 1003.69 1004.71 1005.88 1006.86 1007.95 1008.97 1009.90 1010.74 1011.45 1012.09 1012.81 1013.58 1013.96 1014.44 1014.96 1015.24 1015.41 1015.61 1015.55 1015.55 1015.85
1001.81 1001.66 1000.91 1001.73 1001.42 1000.67 1001.72 1001.65 1001.55 1001.20 1000.82 999.89 999.24 998.34 998.65 998.80 998.82 999.21 999.21 1000.01 1000.66 1001.81 1002.74 1003.58 1004.41 1005.45 1006.39 1007.36 1008.33 1009.24 1010.18 1010.82 1011.46 1011.47 1012.33 1012.81 1013.33 1014.00 1014.62 1014.83 1015.13 1015.38 1015.42 1015.59
1001.53 1001.04 1000.35 1000.05 1000.02 1000.12 1000.04 1000.02 1000.15 1000.13 999.77 999.85 999.51 998.66 998.22 998.62 998.80 999.27 999.56 1000.18 1001.01 1001.69 1002.57 1003.48 1004.39 1005.25 1006.07 1006.94 1007.73 1008.56 1009.25 1009.81 1010.23 1010.81 1012.11 1012.11 1012.67 1013.25 1013.41 1013.97 1014.27 1014.70 1014.93 1015.16
1001.78 1001.38 1000.19 999.67 999.73 1000.33 999.94 999.91 999.98 999.71 999.40 999.04 998.67 997.66 997.73 998.22 998.77 999.31 999.67 1000.34 1001.39 1002.05 1002.69 1003.37 1004.09 1004.99 1005.90 1006.64 1007.28 1008.21 1008.79 1009.18 1009.62 1010.12 1010.63 1011.36 1011.91 1012.80 1012.62 1012.73 1013.42 1013.83 1014.23 1014.52
1002.85 1001.15 999.97 998.77 998.02 998.90 999.29 999.13 999.01 999.22 998.73 998.35 997.70 997.56 997.30 997.42 997.93 998.50 999.66 1000.43 1001.23 1001.90 1002.78 1003.31 1004.04 1004.86 1005.69 1006.43 1007.10 1007.92 1008.49 1008.90 1009.33 1009.75 1010.17 1010.39 1010.95 1011.37 1011.70 1012.06 1012.61 1013.08 1013.53 1013.86
1002.79 1001.36 1000.62 999.83 999.05 998.69 998.83 998.79 998.41 998.54 998.76 998.30 997.30 996.85 996.82 997.20 997.30 997.74 998.95 1000.17 1001.05 1001.80 1002.38 1003.12 1003.76 1004.58 1005.44 1006.17 1006.87 1007.59 1008.16 1008.70 1009.19 1009.63 1009.99 1010.23 1010.53 1010.97 1011.33 1011.60 1012.08 1012.54 1012.88 1013.08
1002.88 1002.01 1001.36 1000.15 999.67 999.21 998.52 998.45 998.22 997.87 997.95 998.18 997.76 997.00 996.90 996.90 997.58 998.05 998.76 999.90 1000.64 1001.37 1001.99 1002.82 1003.54 1004.33 1005.13 1005.83 1006.58 1007.30 1007.99 1008.62 1009.12 1009.38 1009.74 1010.09 1010.35 1010.71 1011.00 1011.37 1011.71 1012.02 1012.36 1012.65
1004.14 1002.69 1001.78 1000.33 1000.13 999.17 997.89 997.95 997.89 997.47 997.30 997.41 996.91 996.72 996.76 996.70 997.53 997.87 998.56 999.48 1000.26 1000.94 1001.62 1002.27 1002.94 1003.78 1004.56 1005.44 1006.25 1007.00 1007.81 1008.40 1008.96 1009.36 1009.60 1009.88 1010.09 1010.42 1010.68 1011.00 1011.39 1011.64 1012.02 1012.18
1004.52 1003.67 1002.84 1001.27 1000.75 998.35 997.89 998.10 997.63 997.36 997.09 996.76 996.89 997.00 996.57 996.70 996.83 997.62 998.26 998.89 999.72 1000.43 1001.33 1002.19 1002.81 1003.73 1004.61 1005.39 1006.14 1006.83 1007.63 1008.24 1008.72 1009.22 1009.67 1009.99 1010.16 1010.39 1010.60 1010.94 1011.23 1011.55 1011.61 1011.77
1003.93 1004.11 1003.03 1001.88 1000.35 999.02 998.42 998.33 998.24 997.92 997.12 996.64 996.57 997.10 996.91 997.15 997.72 998.03 998.50 998.93 999.27 1000.13 1000.97 1001.79 1002.74 1003.84 1004.73 1005.60 1006.61 1007.24 1007.82 1008.41 1008.93 1009.42 1009.69 1009.99 1010.22 1010.45 1010.67 1010.91 1011.08 1011.22 1011.53 1011.72
1003.29 1003.13 1003.43 1002.12 1000.53 998.76 998.90 998.44 999.41 999.46 997.65 997.60 997.26 996.86 997.19 998.23 997.67 997.73 998.97 999.25 999.35 999.73 1000.72 1001.75 1002.77 1003.84 1004.82 1005.70 1006.46 1007.17 1007.69 1008.22 1008.88 1009.48 1009.89 1010.13 1010.21 1010.39 1010.60 1010.80 1011.08 1011.38 1011.59 1011.77
1002.79 1002.65 1001.78 1002.00 1001.20 999.95 999.71 1000.18 1000.50 999.97 999.22 999.44 999.58 998.84 998.29 998.80 998.87 999.58 999.61 999.54 999.55 999.78 1000.64 1001.90 1002.92 1003.46 1004.51 1005.52 1005.97 1006.62 1007.21 1007.98 1008.78 1009.30 1009.63 1010.12 1010.61 1010.77 1010.79 1010.75 1010.94 1011.13 1011.27 1011.46
1003.04 1002.50 1001.99 1001.95 1001.54 1000.23 1000.49 1000.83 1000.99 1000.88 1001.09 1000.97 1000.97 1001.12 1000.98 1000.83 1000.41 1000.10 999.99 1000.00 999.92 1000.06 1000.84 1001.96 1003.05 1003.58 1004.63 1005.34 1005.85 1006.71 1007.25 1008.19 1008.93 1009.33 1009.70 1010.34 1010.50 1010.51 1010.95 1010.91 1010.93 1010.99 1011.31 1011.70
1003.87 1003.51 1003.30 1002.50 1001.96 1002.26 1002.15 1001.87 1002.02 1002.23 1002.11 1002.01 1001.85 1001.77 1001.85 1001.44 1001.06 1000.78 1000.28 1000.12 1000.03 1000.28 1000.96 1001.86 1002.69 1003.89 1004.65 1005.35 1005.77 1006.56 1007.65 1008.38 1008.88 1009.35 1009.72 1010.03 1010.24 1010.58 1010.77 1010.96 1010.96 1011.16 1011.67 1011.84
1004.45 1004.56 1004.25 1003.70 1002.59 1002.15 1002.86 1002.62 1002.83 1002.90 1002.94 1002.93 1002.46 1002.31 1002.12 1001.91 1001.68 1001.07 1000.50 1000.18 1000.03 1000.41 1001.02 1001.86 1002.73 1003.86 1004.64 1005.49 1006.12 1006.87 1007.88 1008.61 1008.91 1009.41 1009.75 1010.10 1010.38 1010.61 1010.69 1010.73 1010.83 1011.21 1011.63 1012.03
1005.10 1004.88 1004.61 1003.65 1003.20 1002.92 1002.95 1003.12 1003.25 1003.37 1003.64 1003.33 1002.93 1002.57 1002.36 1002.27 1001.95 1001.69 1000.96 1000.65 1000.31 1000.63 1001.34 1002.00 1003.06 1004.19 1005.05 1005.90 1006.28 1007.16 1008.24 1008.74 1009.10 1009.35 1009.64 1009.93 1010.24 1010.61 1011.24 1011.86 1012.22 1012.27 1012.66 1013.00
1005.41 1004.95 1004.64 1003.47 1003.42 1003.08 1002.84 1003.04 1003.41 1003.47 1003.44 1003.14 1003.12 1002.93 1002.66 1002.44 1002.16 1001.87 1001.28 1001.04 1000.98 1001.02 1001.56 1002.21 1003.22 1004.16 1005.05 1005.66 1006.21 1007.08 1008.20 1008.63 1009.00 1009.28 1009.48 1009.57 1009.96 1010.57 1011.11 1011.64 1012.78 1013.51 1013.61 1013.63
Wind_Speed
15 12 15 15 11 9 9 10 11 7 3 6 8 10 9 10 14 15 16 13 16 17 16 14 14 13 12 12 13 12 12 12 10 9 9 8 9 8 9 8 7 6 5 5
9 17 16 10 7 10 11 12 10 3 1 7 8 12 10 13 16 17 18 17 17 16 17 16 15 14 14 15 14 14 14 14 12 9 8 7 7 8 7 6 7 7 6 6
19 1 7 8 13 13 14 14 9 11 5 10 11 14 5 11 15 16 18 19 19 20 19 17 15 15 15 15 16 16 15 15 14 12 8 6 6 5 7 7 8 8 8 8
13 16 7 10 14 14 15 4 8 10 8 6 3 7 7 3 11 17 19 20 20 19 18 18 17 15 16 16 15 16 15 15 14 14 11 11 9 9 9 8 8 6 8 9
14 11 15 20 18 10 16 6 9 9 9 9 12 8 2 5 6 13 17 20 21 21 21 20 19 17 16 15 16 16 16 15 15 14 12 10 10 9 8 8 8 7 8 9
17 6 7 15 16 13 2 8 6 5 8 11 7 5 7 3 5 7 1 14 19 21 22 20 19 17 16 15 16 16 17 16 15 15 14 13 12 10 8 9 8 8 8 9
15 17 16 8 10 9 12 12 10 9 10 8 5 9 10 14 13 11 7 7 14 20 20 19 20 19 18 18 17 17 18 17 17 16 15 15 13 13 11 9 9 9 9 9
8 12 20 17 19 12 16 16 11 8 9 9 5 7 6 6 10 10 7 5 11 17 19 20 21 19 19 20 20 18 18 18 14 16 14 14 15 11 11 11 9 8 8 10
5 7 4 10 18 19 9 11 16 17 15 9 13 9 14 10 6 6 7 7 10 15 19 21 20 19 18 18 20 20 19 17 18 15 13 14 13 15 12 13 11 9 8 7
9 10 4 8 10 9 15 8 10 12 14 17 10 5 8 8 8 9 4 7 9 12 17 18 20 21 18 17 17 19 19 20 18 17 14 15 15 15 14 12 13 12 10 10
19 12 6 11 13 14 12 14 14 15 10 11 11 5 2 6 6 8 4 4 7 11 14 17 16 18 18 17 16 17 17 19 17 16 15 16 16 16 15 14 14 14 13 12
19 9 12 17 14 8 12 15 15 10 8 8 9 11 3 6 7 6 4 4 5 6 12 15 16 16 16 16 16 16 17 18 19 14 7 14 12 10 16 15 16 14 14 13
8 11 13 15 12 10 12 15 18 17 14 12 12 9 9 4 6 5 6 7 8 8 11 14 15 15 15 16 15 14 14 14 15 15 16 17 16 16 17 16 16 15 15 14
7 16 13 15 12 3 11 12 14 17 14 14 15 12 13 6 8 6 8 9 10 11 12 13 13 14 14 14 13 13 13 13 13 13 14 15 16 17 17 16 14 15 14 14
9 17 18 19 22 19 14 18 16 15 14 19 17 14 12 11 8 6 8 12 11 11 13 14 14 14 14 14 13 12 11 12 13 13 13 13 13 13 14 13 13 14 14 14
9 14 16 20 18 21 22 19 20 21 18 20 20 20 14 10 2 7 10 14 15 14 14 13 13 13 13 12 12 11 11 11 11 12 13 12 12 12 13 13 13 14 15 14
11 11 16 20 21 22 25 21 19 21 20 17 18 18 17 12 10 9 11 14 15 14 14 15 15 14 13 12 11 11 10 10 11 10 10 10 10 11 12 12 10 10 10 12
13 12 11 16 17 28 15 19 16 20 23 20 16 16 19 11 11 9 10 13 16 16 14 13 12 13 13 12 12 11 10 9 8 8 7 7 7 7 7 8 9 9 11 11
19 15 14 15 16 20 17 10 12 18 22 23 18 15 12 5 6 9 4 6 11 15 15 15 14 14 13 13 12 10 10 9 8 7 5 5 4 5 5 6 7 6 5 6
23 20 15 16 20 26 16 16 2 7 17 18 13 16 15 7 10 6 5 2 7 12 15 16 17 16 15 14 14 13 12 11 9 7 6 5 5 6 6 5 5 3 3 3
12 16 22 17 20 22 15 3 3 14 5 4 7 7 8 10 4 5 3 4 3 9 15 17 17 17 16 16 15 13 13 11 11 11 9 8 6 6 5 6 5 5 4 4
16 11 14 19 22 28 8 5 14 6 3 4 4 4 3 5 3 3 2 4 4 10 16 19 16 16 16 16 15 14 13 12 10 9 9 7 6 5 5 6 6 5 5 5
11 14 11 14 9 8 8 6 5 6 5 4 4 4 4 4 4 5 4 3 6 10 14 17 17 17 16 16 15 15 14 13 12 10 9 8 7 5 5 5 5 5 4 3
13 12 9 13 13 10 4 4 2 3 7 7 6 6 5 6 8 8 6 5 6 10 14 16 17 17 16 14 14 13 13 11 11 10 9 7 7 6 5 4 4 3 4 3
11 13 11 16 14 14 9 5 2 1 6 9 8 7 7 7 8 9 8 6 5 9 12 15 14 13 14 13 13 13 12 11 9 9 8 7 6 6 5 5 5 2 5 4
13 17 15 15 16 8 9 13 4 8 10 10 7 7 7 8 9 10 8 5 4 8 12 13 15 15 15 15 14 13 11 10 10 9 7 5 5 6 5 6 7 10 8 5
Wind_Direction
197 224 223 238 237 314 305 286 296 326 61 261 256 267 254 204 215 217 200 227 205 206 204 197 190 189 183 177 173 178 180 168 182 184 188 189 196 186 196 193 184 192 203 193
184 232 244 252 299 257 262 270 283 61 92 259 290 273 256 222 222 219 212 214 217 204 204 197 193 193 192 184 180 178 183 175 184 187 202 205 210 200 206 205 192 208 213 193
232 201 287 217 238 246 245 261 298 311 325 250 282 264 228 215 217 223 224 212 213 213 199 195 198 197 194 190 186 182 182 180 185 188 191 193 203 225 201 206 203 205 215 201
246 251 210 226 241 244 258 270 308 285 276 299 272 305 288 200 209 218 225 219 215 212 208 199 194 197 196 194 187 180 182 182 184 187 190 202 207 208 201 201 202 198 208 203
230 225 237 240 244 245 249 357 294 291 254 273 208 256 287 210 250 226 222 223 214 207 204 200 197 192 197 188 183 180 180 185 183 185 206 194 223 206 193 202 192 221 187 202
264 149 271 250 234 230 252 215 229 238 259 255 252 273 287 201 268 332 252 211 213 206 200 198 197 190 189 183 184 180 178 183 187 187 198 211 204 235 217 206 198 201 192 189
221 232 229 233 190 193 207 225 239 221 209 258 77 286 277 291 293 313 285 210 209 198 201 198 191 188 185 180 184 182 182 186 187 191 193 204 216 215 232 241 219 224 195 198
238 208 204 201 230 199 211 239 257 268 282 315 142 266 276 299 285 274 285 266 194 199 192 194 190 193 187 183 183 184 184 187 184 192 199 202 209 223 218 225 238 215 229 201
226 220 134 235 210 225 176 229 253 283 275 255 271 288 284 254 266 268 262 197 196 197 197 189 187 190 188 189 185 184 185 188 188 189 192 206 210 222 222 231 208 228 244 241
257 274 214 140 204 229 262 295 225 221 259 271 267 273 270 294 328 338 281 201 181 189 195 194 191 191 184 190 189 192 186 192 187 184 190 208 211 215 220 222 227 234 234 233
237 243 231 165 206 208 193 230 237 276 284 290 277 260 113 278 337 313 287 177 168 177 185 190 192 189 187 188 185 194 190 199 198 196 204 212 208 213 213 219 220 227 230 230
220 246 242 234 226 251 273 224 216 239 228 241 296 294 259 270 310 298 244 164 140 167 174 180 180 187 182 190 187 196 194 203 209 199 197 217 216 219 211 216 218 221 225 229
180 224 245 236 193 210 231 224 237 252 257 270 275 268 136 195 253 251 228 170 156 154 165 177 173 177 185 188 189 196 203 205 209 210 204 215 204 212 225 215 218 219 221 226
278 257 242 262 246 65 206 222 224 251 243 249 250 256 285 253 247 246 211 184 171 162 163 173 172 180 182 190 193 195 206 206 207 210 216 214 214 221 220 222 221 221 221 226
261 251 261 258 271 281 266 273 240 222 250 267 279 274 252 276 265 239 194 185 180 173 168 175 178 178 181 183 188 191 195 197 202 208 210 220 221 218 226 225 227 222 224 225
250 263 266 267 267 267 266 253 264 262 240 258 269 273 283 278 207 214 188 188 188 179 174 173 178 180 183 183 184 182 186 193 198 201 210 215 216 219 220 223 227 229 229 233
281 272 253 255 259 266 256 254 257 260 247 245 251 254 257 247 220 210 189 190 196 190 186 182 178 178 176 176 175 178 178 177 188 198 207 214 214 220 221 223 222 224 228 232
258 265 270 266 270 252 259 261 266 263 244 235 250 266 274 235 213 211 211 196 196 192 184 182 172 162 156 153 162 148 155 162 166 173 186 201 210 216 216 217 214 211 220 225
235 241 258 256 249 259 251 256 265 260 256 256 239 239 250 205 223 202 181 229 202 197 187 176 162 155 150 150 152 148 149 146 145 156 167 181 188 195 202 210 216 218 228 237
239 231 241 248 252 249 257 254 118 292 257 255 283 232 226 220 222 146 112 183 216 189 181 174 161 153 155 155 153 155 143 141 140 141 139 158 175 184 176 160 148 148 190 167
225 231 233 232 249 256 265 23 314 241 298 35 336 291 260 223 14 92 7 40 211 189 173 172 164 161 157 161 155 150 146 148 142 149 143 134 134 135 149 138 153 164 162 155
262 247 234 228 244 249 230 184 243 6 22 32 68 31 314 314 324 313 296 262 191 178 168 171 172 160 159 161 152 150 147 140 143 137 127 129 132 129 142 138 145 142 142 138
251 267 308 292 302 30 349 345 22 345 325 347 348 17 7 348 355 324 305 257 207 184 180 177 171 161 161 162 154 152 146 151 147 148 142 140 147 143 120 135 147 159 154 181
264 271 271 294 260 291 336 328 289 353 346 336 344 336 335 352 349 340 330 310 209 186 180 184 168 166 160 156 150 144 150 149 161 156 153 155 164 157 155 171 150 162 158 169
280 305 276 270 265 274 253 237 136 333 312 327 335 353 356 347 347 343 326 332 228 184 182 178 171 163 155 155 148 145 145 164 163 164 165 167 159 182 126 60 20 47 54 353
262 255 254 258 267 287 258 184 243 298 298 307 297 317 343 343 340 328 327 329 253 186 176 167 167 163 162 159 150 147 155 174 181 177 179 173 163 175 160 161 126 50 41 38